Weather in Haderslev

Denmark     55°15′27″N   9°28′36″E
temp.,
°C
wind,
m/s
gust,
m/s
humid.,
%
clouds,
%
prec.,
mm/h
press.,
hPa
HPBL,
m
19 april, mon
mon1923:00+7ne36725 0.0 102499
02:00+8ene377472 0.0 1024145
05:00+8ene3573100 0.0 1024113
08:00+8ene3771100 0.0 1024192
11:00+12ene465159 0.0 1023541
14:00+15ene45435 0.0 1023845
17:00+14ne34491 0.0 1022569
20:00+10ene22680 0.0 102234
20 april, tue
tue2023:00+8ene23694 0.0 102226
02:00+7e22710 0.0 102218
05:00+5e22650 0.0 102117
08:00+7ene23610 0.0 102093
11:00+12ene22440 0.0 1020538
14:00+14ne33390 0.0 10181200
17:00+15ene22391 0.0 10171041
20:00+11wnw47665 0.0 1016195
21 april, wed
wed2123:00+7nw35775 0.0 101688
02:00+6wnw3681100 0.0 1015101
05:00+5w498799 0.0 1014211
08:00+6nw61077100 0.0 1014912
11:00+8wnw8114912 0.0 10131736
14:00+9wnw10134889 0.1 10122247
17:00+8wnw1116515 0.4 10122079
20:00+5wnw1119625 0.4 10111603
22 april, thu
thu2223:00+4wnw11196478 0.0 10101478
02:00+4nw11176792 0.0 10091493
05:00+4nw10167389 0.0 1009872
08:00+5nw7127361 0.0 1009811
11:00+9nnw91442100 0.0 10092249
14:00+8nnw9145285 0.0 10121826
17:00+9nnw9144865 0.0 10141808
20:00+7nw712490 0.0 1016605
23 april, fri
fri2323:00+3wnw511760 0.0 1018230
02:00+2wnw510940 0.0 1019180
05:00+1wnw37951 0.0 1019128
08:00+4nw34870 0.0 1020196
11:00+9nw46535 0.0 10211190
14:00+11nw9124767 0.0 10201885
17:00+9nw9136279 0.1 10211855
20:00+7nw812709 0.1 10211094